Date,TemperatureHighF,TemperatureAvgF,TemperatureLowF,DewpointHighF,DewpointAvgF,DewpointLowF,HumidityHigh,HumidityAvg,HumidityLow,PressureMaxIn,PressureMinIn,WindSpeedMaxMPH,WindSpeedAvgMPH,GustSpeedMaxMPH,PrecipitationSumIn
2013-1-1,35,27,16,25,16,3,84,63,45,29.85,29.59,7,3,13,0.01
2013-1-2,26,15,5,12,3,-7,79,59,45,30.03,29.82,8,2,12,0.00
2013-1-3,22,10,-1,4,-3,-8,72,56,37,30.06,29.91,3,1,5,0.00
2013-1-4,36,23,6,25,15,-1,89,73,57,29.90,29.70,3,1,5,0.01
2013-1-5,37,29,18,24,18,13,84,66,40,30.18,29.72,6,2,13,0.00
2013-1-6,40,28,18,29,23,14,88,80,61,30.15,29.84,2,0,3,0.01
2013-1-7,35,27,16,26,21,12,91,77,49,30.32,29.87,3,0,6,0.00
2013-1-8,43,28,15,27,22,12,93,78,50,30.28,30.15,4,1,7,0.03
2013-1-9,40,30,20,32,26,18,92,83,67,30.33,29.86,3,0,5,0.06
2013-1-10,43,38,28,30,26,23,83,61,49,30.46,29.89,9,4,19,0.25
2013-1-11,38,30,23,32,26,20,95,83,66,30.45,30.16,2,0,4,0.14
2013-1-12,40,36,33,39,35,32,97,97,95,30.16,30.05,0,0,0,0.19
2013-1-13,43,39,36,43,39,35,98,98,97,30.07,29.89,1,0,1,0.04
2013-1-14,53,44,37,51,40,28,99,86,58,30.15,29.74,5,1,5,0.01
2013-1-15,40,34,29,30,27,23,88,74,56,30.25,30.15,2,0,2,0.00
2013-1-16,32,30,29,30,28,24,95,90,75,30.18,29.73,1,0,2,0.00
2013-1-17,39,30,24,35,24,8,96,79,43,30.04,29.73,5,1,7,0.09
2013-1-18,26,18,13,10,-1,-11,73,45,30,30.36,29.98,8,2,13,0.00
2013-1-19,43,32,15,28,21,7,87,64,45,30.30,29.79,4,1,12,0.12
2013-1-20,50,38,27,32,24,7,86,60,30,29.82,29.41,8,3,13,0.14
2013-1-21,27,24,18,19,7,-2,87,52,35,29.99,29.75,7,2,12,0.00
2013-1-22,24,19,11,18,7,-4,85,61,31,29.98,29.68,6,2,12,0.00
2013-1-23,11,7,2,0,-8,-13,74,50,34,30.07,29.97,5,2,8,0.00
2013-1-24,15,7,0,-6,-12,-17,54,41,28,30.12,29.96,7,3,16,0.00
2013-1-25,20,14,6,4,-5,-8,57,44,30,30.19,29.99,6,2,12,0.00
2013-1-26,23,16,10,10,2,-8,84,57,30,30.12,29.93,7,2,11,0.00
2013-1-27,27,18,12,4,-1,-8,62,44,27,30.38,30.12,6,2,13,0.00
2013-1-28,28,20,11,21,9,-3,91,64,26,30.37,29.97,1,0,3,0.00
2013-1-29,35,29,22,30,25,20,94,86,75,30.13,29.97,2,0,5,0.09
2013-1-30,54,39,32,54,38,31,98,96,94,30.09,29.37,3,1,6,0.28
2013-1-31,60,46,30,57,35,10,98,69,40,29.45,28.81,9,5,17,0.16